When you browse on this site, cookies collect data to enhance your experience and personalize the content and advertising you see.
Visit our Privacy Policy to learn more. By continuing to use the site, you agree to this use of cookies and data.
  • en Belgique
  • Liste des pays
  • À 7 jours
  • Température de l'eau
  • Carte satellitaire
  • Carte météo
  • Widgets météo
  • user-avatar
    Se connecter

    Météo par heure à Baden-Baden

    Ce jour, 22 Février, Vendredi

    Heure Température Précipitation Vent Pression Humidité
    00:00 +8°C° 0 mm 1 m/s 740 mmHg 90%
    01:00 +9°C° 0 mm 1 m/s 741 mmHg 93%
    02:00 +8°C° 0 mm 1 m/s 741 mmHg 93%
    03:00 +8°C° 0 mm 1 m/s 741 mmHg 94%
    04:00 +8°C° 0 mm 1 m/s 741 mmHg 94%
    05:00 +8°C° 0 mm 1 m/s 741 mmHg 94%
    06:00 +8°C° 0 mm 1 m/s 741 mmHg 94%
    07:00 +8°C° 0 mm 1 m/s 742 mmHg 93%
    08:00 +9°C° 0 mm 1 m/s 742 mmHg 91%
    09:00 +9°C° 0 mm 1 m/s 742 mmHg 89%
    10:00 +9°C° 0 mm 0 m/s 742 mmHg 86%
    11:00 +10°C° 0 mm 1 m/s 743 mmHg 82%
    12:00 +10°C° 0 mm 2 m/s 743 mmHg 78%
    13:00 +10°C° 0 mm 2 m/s 743 mmHg 74%
    14:00 +10°C° 0 mm 2 m/s 743 mmHg 73%
    15:00 +10°C° 0 mm 2 m/s 743 mmHg 72%
    16:00 +10°C° 0 mm 3 m/s 743 mmHg 72%
    17:00 +9°C° 0 mm 2 m/s 743 mmHg 76%
    18:00 +8°C° 0 mm 2 m/s 743 mmHg 81%
    19:00 +6°C° 0 mm 2 m/s 743 mmHg 86%
    20:00 +6°C° 0 mm 2 m/s 743 mmHg 87%
    21:00 +6°C° 0 mm 2 m/s 744 mmHg 87%
    22:00 +4°C° 0 mm 3 m/s 744 mmHg 88%
    23:00 +5°C° 0 mm 2 m/s 744 mmHg 89%

    Demain, 23 Février, Samedi

    Heure Température Précipitation Vent Pression Humidité
    00:00 +4°C° 0 mm 2 m/s 744 mmHg 89%
    01:00 +4°C° 0 mm 2 m/s 744 mmHg 89%
    02:00 +4°C° 0 mm 2 m/s 744 mmHg 90%
    03:00 +3°C° 0 mm 2 m/s 744 mmHg 90%
    04:00 +2°C° 0 mm 2 m/s 744 mmHg 91%
    05:00 +2°C° 0 mm 2 m/s 744 mmHg 90%
    06:00 +1°C° 0 mm 2 m/s 744 mmHg 89%
    07:00 +1°C° 0 mm 2 m/s 744 mmHg 88%
    08:00 +1°C° 0 mm 3 m/s 744 mmHg 77%
    09:00 +2°C° 0 mm 3 m/s 744 mmHg 66%
    10:00 +3°C° 0 mm 3 m/s 744 mmHg 55%
    11:00 +5°C° 0 mm 4 m/s 744 mmHg 46%
    12:00 +6°C° 0 mm 4 m/s 744 mmHg 38%
    13:00 +8°C° 0 mm 4 m/s 743 mmHg 29%
    14:00 +8°C° 0 mm 4 m/s 743 mmHg 30%
    15:00 +8°C° 0 mm 4 m/s 743 mmHg 31%
    16:00 +8°C° 0 mm 5 m/s 742 mmHg 32%
    17:00 +6°C° 0 mm 4 m/s 742 mmHg 35%
    18:00 +4°C° 0 mm 4 m/s 743 mmHg 38%
    19:00 +3°C° 0 mm 4 m/s 743 mmHg 40%
    20:00 +1°C° 0 mm 4 m/s 743 mmHg 40%
    21:00 +1°C° 0 mm 3 m/s 743 mmHg 40%
    22:00 +1°C° 0 mm 3 m/s 743 mmHg 39%
    23:00 0°C° 0 mm 3 m/s 743 mmHg 40%

    Après-demain, 24 Février, Dimanche

    Heure Température Précipitation Vent Pression Humidité
    00:00 0°C° 0 mm 3 m/s 743 mmHg 40%
    01:00 0°C° 0 mm 3 m/s 743 mmHg 40%
    02:00 +1°C° 0 mm 2 m/s 743 mmHg 40%
    03:00 -1°C° 0 mm 2 m/s 743 mmHg 40%
    04:00 -1°C° 0 mm 2 m/s 743 mmHg 41%
    05:00 -1°C° 0 mm 2 m/s 743 mmHg 40%
    06:00 -1°C° 0 mm 2 m/s 743 mmHg 40%
    07:00 -1°C° 0 mm 2 m/s 744 mmHg 40%
    08:00 +2°C° 0 mm 2 m/s 744 mmHg 36%
    09:00 +3°C° 0 mm 2 m/s 744 mmHg 32%
    10:00 +5°C° 0 mm 2 m/s 744 mmHg 28%
    11:00 +7°C° 0 mm 3 m/s 744 mmHg 28%
    12:00 +8°C° 0 mm 3 m/s 744 mmHg 27%
    13:00 +10°C° 0 mm 3 m/s 744 mmHg 26%
    14:00 +10°C° 0 mm 3 m/s 744 mmHg 28%
    15:00 +10°C° 0 mm 3 m/s 744 mmHg 31%
    16:00 +10°C° 0 mm 3 m/s 744 mmHg 33%
    17:00 +9°C° 0 mm 3 m/s 744 mmHg 39%
    18:00 +7°C° 0 mm 3 m/s 744 mmHg 45%
    19:00 +5°C° 0 mm 2 m/s 744 mmHg 50%
    20:00 +4°C° 0 mm 2 m/s 744 mmHg 52%
    21:00 +4°C° 0 mm 2 m/s 745 mmHg 53%
    22:00 +3°C° 0 mm 2 m/s 745 mmHg 54%
    23:00 +3°C° 0 mm 2 m/s 745 mmHg 54%

    25 Février, Lundi

    Heure Température Précipitation Vent Pression Humidité
    00:00 +3°C° 0 mm 2 m/s 745 mmHg 54%
    01:00 +2°C° 0 mm 2 m/s 745 mmHg 54%
    02:00 +2°C° 0 mm 2 m/s 745 mmHg 55%
    03:00 +2°C° 0 mm 2 m/s 745 mmHg 56%
    04:00 +2°C° 0 mm 2 m/s 745 mmHg 57%
    05:00 +2°C° 0 mm 2 m/s 745 mmHg 57%
    06:00 +2°C° 0 mm 2 m/s 745 mmHg 58%
    07:00 +2°C° 0 mm 2 m/s 745 mmHg 59%
    08:00 +3°C° 0 mm 2 m/s 745 mmHg 56%
    09:00 +5°C° 0 mm 2 m/s 745 mmHg 52%
    10:00 +6°C° 0 mm 2 m/s 746 mmHg 49%
    11:00 +8°C° 0 mm 3 m/s 745 mmHg 48%
    12:00 +9°C° 0 mm 3 m/s 745 mmHg 47%
    13:00 +11°C° 0 mm 3 m/s 745 mmHg 47%
    14:00 +11°C° 0 mm 3 m/s 744 mmHg 49%
    15:00 +12°C° 0 mm 4 m/s 744 mmHg 51%
    16:00 +12°C° 0 mm 4 m/s 744 mmHg 53%
    17:00 +10°C° 0 mm 3 m/s 744 mmHg 60%
    18:00 +9°C° 0 mm 3 m/s 744 mmHg 68%
    19:00 +7°C° 0 mm 3 m/s 744 mmHg 75%
    20:00 +7°C° 0 mm 2 m/s 744 mmHg 77%
    21:00 +6°C° 0 mm 2 m/s 744 mmHg 79%
    22:00 +6°C° 0 mm 2 m/s 744 mmHg 80%
    23:00 +5°C° 0 mm 2 m/s 744 mmHg 81%

    26 Février, Mardi

    Heure Température Précipitation Vent Pression Humidité
    00:00 +5°C° 0 mm 2 m/s 744 mmHg 82%
    01:00 +4°C° 0 mm 2 m/s 744 mmHg 83%
    02:00 +4°C° 0 mm 2 m/s 744 mmHg 83%
    03:00 +5°C° 0 mm 1 m/s 743 mmHg 83%
    04:00 +4°C° 0 mm 1 m/s 743 mmHg 82%
    05:00 +4°C° 0 mm 1 m/s 743 mmHg 82%
    06:00 +4°C° 0 mm 1 m/s 743 mmHg 82%
    07:00 +4°C° 0 mm 1 m/s 743 mmHg 81%
    08:00 +5°C° 0 mm 1 m/s 743 mmHg 74%
    09:00 +7°C° 0 mm 1 m/s 743 mmHg 67%
    10:00 +9°C° 0 mm 1 m/s 744 mmHg 60%
    11:00 +11°C° 0 mm 1 m/s 744 mmHg 55%
    12:00 +12°C° 0 mm 2 m/s 743 mmHg 51%
    13:00 +14°C° 0 mm 2 m/s 743 mmHg 46%
    14:00 +14°C° 0 mm 2 m/s 743 mmHg 46%
    15:00 +14°C° 0 mm 2 m/s 743 mmHg 47%
    16:00 +14°C° 0 mm 2 m/s 742 mmHg 48%
    17:00 +13°C° 0 mm 2 m/s 742 mmHg 55%
    18:00 +10°C° 0 mm 2 m/s 742 mmHg 62%
    19:00 +9°C° 0 mm 1 m/s 742 mmHg 68%
    20:00 +8°C° 0 mm 1 m/s 742 mmHg 69%
    21:00 +8°C° 0 mm 1 m/s 742 mmHg 71%
    22:00 +8°C° 0 mm 1 m/s 742 mmHg 72%
    23:00 +7°C° 0 mm 1 m/s 742 mmHg 72%

    27 Février, Mercredi

    Heure Température Précipitation Vent Pression Humidité
    00:00 +7°C° 0 mm 1 m/s 742 mmHg 73%
    01:00 +7°C° 0 mm 1 m/s 742 mmHg 73%
    02:00 +6°C° 0 mm 1 m/s 741 mmHg 73%
    03:00 +6°C° 0 mm 1 m/s 741 mmHg 72%
    04:00 +6°C° 0 mm 1 m/s 741 mmHg 72%
    05:00 +6°C° 0 mm 1 m/s 741 mmHg 72%
    06:00 +6°C° 0 mm 1 m/s 741 mmHg 71%
    07:00 +5°C° 0 mm 1 m/s 740 mmHg 71%
    08:00 +7°C° 0 mm 1 m/s 740 mmHg 65%
    09:00 +9°C° 0 mm 1 m/s 740 mmHg 60%
    10:00 +11°C° 0 mm 1 m/s 740 mmHg 54%
    11:00 +13°C° 0 mm 1 m/s 740 mmHg 50%
    12:00 +15°C° 0 mm 1 m/s 739 mmHg 45%
    13:00 +16°C° 0 mm 1 m/s 739 mmHg 41%
    14:00 +16°C° 0 mm 1 m/s 738 mmHg 42%
    15:00 +16°C° 0 mm 1 m/s 738 mmHg 43%
    16:00 +16°C° 0 mm 1 m/s 737 mmHg 44%
    17:00 +14°C° 0 mm 1 m/s 737 mmHg 51%
    18:00 +12°C° 0 mm 1 m/s 737 mmHg 58%
    19:00 +10°C° 0 mm 1 m/s 736 mmHg 65%
    20:00 +10°C° 0 mm 1 m/s 736 mmHg 67%
    21:00 +9°C° 0 mm 1 m/s 736 mmHg 69%
    22:00 +9°C° 0 mm 1 m/s 736 mmHg 71%
    23:00 +8°C° 0 mm 1 m/s 736 mmHg 72%
    Voir plus